Lid_Strength_Index
15 15 15 15 15 15 15 15 15 15 15 15 15 15 15 15 15 15 14 15 15 14
15 15 15 15 15 15 15 14 14 15 15 15 15 15 15 15 16 15 15 15 14 15
15 15 15 15 15 15 15 15 15 15 15 15 15 15 15 16 15 16 16 15 16 15
15 15 15 15 15 14 14 14 14 14 15 15 15 15 16 16 16 16 16 16 16 16
14 14 14 15 15 14 15 15 15 15 15 15 15 15 15 16 16 16 16 16 16 16
14 14 14 14 14 14 15 15 15 15 15 15 15 15 15 15 16 16 16 16 16 15
14 14 14 14 14 15 15 16 16 16 16 16 16 16 16 15 16 16 15 15 15 15
13 14 14 15 15 15 16 16 16 16 16 16 16 15 15 15 15 15 15 15 15 15
14 14 14 15 16 16 16 17 16 16 16 16 15 13 12 12 14 14 15 16 15 15
15 16 16 16 17 17 17 16 17 16 16 17 16 13 12 12 14 14 15 15 16 16
17 18 17 17 17 17 17 17 17 17 17 17 16 14 13 13 14 15 16 16 16 16
17 18 17 19 18 18 18 18 19 17 18 19 18 15 14 14 15 16 16 16 16 16
17 20 20 19 20 19 20 18 18 18 19 19 20 16 14 14 15 17 17 16 15 14
18 20 21 22 21 22 22 20 22 21 20 20 19 19 15 13 14 15 16 15 15 15